This demonstration page uses our WeatherBlox Daily Observations layout. Learn more.

Left ArrowRight Arrow

Hourly Observations for September 8, 2016

Temp ( °F °C ) Dew Point ( °F °C ) Humidity (%) Winds ( mph kmh ) Pressure ( in mb ) Visibility ( mi km ) Precip ( " mm )
12:51 am 00:51 Cloudy 65 18.3 64 17.8 97 97 NNW 9 15 29.98 1015 10 16.0934 0.03 0.762
1:51 am 01:51 Cloudy 66 18.9 64 17.8 93 93 NNW 8 13 29.98 1015 10 16.0934 0.01 0.254
2:51 am 02:51 Cloudy 67 19.4 64 17.8 91 91 NNW 9 15 29.97 1015 10 16.0934 0 0
3:51 am 03:51 Cloudy 68 20 63 17.2 84 84 N 5 7 29.97 1015 10 16.0934 0 0
4:51 am 04:51 Cloudy 66 18.9 65 18.3 96 96 S 6 9 29.98 1015 10 16.0934 0 0
5:51 am 05:51 Partly Cloudy 66 18.9 64 17.8 93 93 SW 5 7 29.99 1016 10 16.0934 0 0
6:13 am 06:13 Partly Cloudy 66 18.9 64 17.8 93 93 Calm 30 1016 10 16.0934 0 0
6:28 am 06:28 Mostly Cloudy 66 18.9 65 18.3 96 96 Calm 30 1016 10 16.0934 0 0
6:51 am 06:51 Cloudy 67 19.4 64 17.8 91 91 Calm 30.01 1016 10 16.0934 0 0
7:51 am 07:51 Mostly Cloudy 68 20 65 18.3 90 90 SE 5 7 30.03 1017 10 16.0934 0 0
8:03 am 08:03 Mostly Cloudy 68 20 65 18.3 90 90 SE 5 7 30.03 1017 10 16.0934 0 0
8:36 am 08:36 Mostly Cloudy 69 20.6 65 18.3 87 87 Calm 30.03 1017 10 16.0934 0 0
8:51 am 08:51 Mostly Cloudy 71 21.7 66 18.9 84 84 Calm 30.02 1017 10 16.0934 0 0
9:00 am 09:00 Partly Cloudy 71 21.7 65 18.3 81 81 Calm 30 1016 10 16.0934 0 0
9:51 am 09:51 Mostly Cloudy 75 23.9 67 19.4 76 76 WNW 12 19 30.01 1016 10 16.0934 0 0
10:51 am 10:51 Mostly Cloudy 78 25.6 66 18.9 67 67 NW 15 24 29.99 1016 10 16.0934 0 0
11:51 am 11:51 Mostly Sunny 80 26.7 65 18.3 60 60 WNW 18 30 29.96 1015 10 16.0934 0 0
12:51 pm 12:51 Sunny 82 27.8 65 18.3 56 56 NW 17 28 29.93 1013 10 16.0934 0 0
1:51 pm 13:51 Sunny 83 28.3 65 18.3 55 55 WNW 16 26 29.9 1013 10 16.0934 0 0
2:51 pm 14:51 Sunny 85 29.4 66 18.9 53 53 WNW 17 28 29.87 1011 10 16.0934 0 0
3:51 pm 15:51 Sunny 86 30 65 18.3 49 49 NW 14 22 29.84 1011 10 16.0934 0 0
4:51 pm 16:51 Sunny 86 30 63 17.2 46 46 WNW 14 22 29.83 1010 10 16.0934 0 0
5:51 pm 17:51 Mostly Sunny 84 28.9 63 17.2 49 49 W 12 19 29.83 1010 10 16.0934 0 0
6:51 pm 18:51 Mostly Cloudy 80 26.7 64 17.8 58 58 NW 10 17 29.85 1011 10 16.0934 0 0
7:51 pm 19:51 Mostly Cloudy 78 25.6 64 17.8 62 62 NW 12 19 29.87 1011 10 16.0934 0 0
8:51 pm 20:51 Mostly Clear 77 25 64 17.8 64 64 NW 10 17 29.88 1012 10 16.0934 0 0
9:51 pm 21:51 Clear 76 24.4 64 17.8 67 67 NNW 10 17 29.88 1012 10 16.0934 0 0
10:51 pm 22:51 Clear 75 23.9 63 17.2 66 66 NW 8 13 29.89 1012 10 16.0934 0 0
11:51 pm 23:51 Clear 74 23.3 63 17.2 69 69 NW 10 17 29.88 1012 10 16.0934 0 0

Powered by AerisWeather